Home   Weather   Miskolc   Past weeks

Flag for Hungary Past Weather in Miskolc, Hungary — Yesterday and Last 2 Weeks

Now
49 °F

Passing clouds.


Feels Like: 49 °F
Forecast: 54 / 75 °F
Wind: No wind

Location: Miskolc

Current Time: Sep 28, 2016 at 2:12:46 AM

Latest Report: Sep 28, 2016 at 1:00 AM


Visibility: 16 mi

Pressure: 30.36 "Hg

Humidity: 80%

Dew Point: 43 °F

Location of MiskolcLocation

Past Weather in Miskolc — Graph

°F

Miskolc Temperature Yesterday

Maximum temperature yesterday: 69 °F (at 3:00 PM)
Minimum temperature yesterday: 47 °F (at 3:00 AM)
Average temperature yesterday: 56 °F

High & Low Weather Summary for the Past Weeks

 TemperatureHumidityPressure
High85 °F (Sep 16, 3:00 PM)91% (Sep 18, 5:00 AM)30.36 "Hg (Sep 18, 5:00 AM)
Low40 °F (Sep 23, 7:00 AM)32% (Sep 23, 3:00 PM)29.72 "Hg (Sep 19, 3:00 PM)
Average61 °F69%30.06 "Hg
* Reported Sep 13 12:00 AM — Sep 28 12:00 AM, Miskolc, Weather by CustomWeather, © 2016

Note: Actual official high and low records may vary slightly from our data, if they occured in-between our weather recording intervals... More about our weather records

Advertising

Miskolc Weather History for the Previous 24 Hours

Scroll right to see more
 ConditionsComfort  
Time TempWeatherWind HumidityBarometerVisibility
12:00 AM
Wed, Sep 28
51 °FPassing clouds.No wind79%30.36 "Hg19 mi
11:00 PM
Tue, Sep 27
52 °FPassing clouds.1 mph77%30.35 "Hg19 mi
10:00 PM53 °FPassing clouds.No wind75%30.34 "Hg19 mi
9:00 PM53 °FPassing clouds.No wind73%30.33 "Hg19 mi
8:00 PM57 °FPassing clouds.1 mph67%30.32 "Hg19 mi
7:00 PM60 °FPassing clouds.1 mph59%30.29 "Hg19 mi
6:00 PM66 °FPassing clouds.No wind49%30.28 "Hg19 mi
5:00 PM69 °FPassing clouds.2 mph41%30.27 "Hg19 mi
4:00 PM69 °FScattered clouds.No wind39%30.27 "Hg19 mi
3:00 PM69 °FScattered clouds.2 mph39%30.27 "Hg19 mi
2:00 PM69 °FScattered clouds.1 mph42%30.28 "Hg19 mi
1:00 PM67 °FPassing clouds.1 mph46%30.29 "Hg19 mi
12:00 PM65 °FPassing clouds.1 mph50%30.29 "Hg19 mi
11:00 AM62 °FPassing clouds.1 mph54%30.29 "Hg19 mi
8:00 AM50 °FPartly sunny.No wind81%30.28 "Hg16 mi
7:00 AM47 °FOvercast.No wind83%30.27 "Hg16 mi
6:00 AM47 °FPassing clouds.No wind82%30.27 "Hg16 mi
5:00 AM47 °FPassing clouds.No wind81%30.27 "Hg16 mi
4:00 AM47 °FPassing clouds.1 mph79%30.27 "Hg16 mi
3:00 AM47 °FPassing clouds.1 mph80%30.27 "Hg16 mi
2:00 AM47 °FClear.1 mph79%30.27 "Hg16 mi
Weather by CustomWeather, © 2016

See weather overviewHow to use our weather pages